Mersa Matruh, Egypt

9:45 PM EET on May 23, 2018 (GMT +0200)
Mersa Matruh

Weather History for HEMM - January, 2013

Change the Weather History Date:

Thursday, January 24, 2013

  Actual Average Record
Temperature  
Mean Temperature 58 °F -  
Max Temperature 69 °F 62 °F 74 °F (2015)
Min Temperature 48 °F 48 °F 44 °F (2007)
Degree Days  
Heating Degree Days 6    
Growing Degree Days 8 (Base 50)    
Moisture  
Dew Point 49 °F    
Average Humidity 73    
Maximum Humidity 94    
Minimum Humidity 32    
Precipitation  
Precipitation 0.00 in 0.03 in - ()
Sea Level Pressure  
Sea Level Pressure 29.98 in    
Wind  
Wind Speed 7 mph ()    
Max Wind Speed 16 mph    
Max Gust Speed -    
Visibility 6.0 miles    
Events      
Averages and records for this station are not official NWS values.
T = Trace of Precipitation, MM = Missing Value Source: Averaged Metar Reports

Daily Weather History Graph

Daily Weather History Graph

Search for Another Location

Airport or City:

Astronomy

Jan. 24, 2013 Rise Set
Actual Time 7:07 AM EET 5:38 PM EET
Civil Twilight 6:42 AM EET 6:04 PM EET
Nautical Twilight 6:12 AM EET 6:34 PM EET
Astronomical Twilight 5:43 AM EET 7:03 PM EET
Moon 3:26 PM EET (1/24) 4:48 AM EET (1/24)
Length of Visible Light 11h 22m
Length of Day
10h 31m
Waxing Gibbous, 93% of the Moon is Illuminated
Jan 24
Waxing Gibbous
Jan 27
Full
Feb 3
Last Quarter
Feb 10
New
Feb 17
First Quarter

Hourly Weather History & Observations

Time (EET) Temp. Dew Point Humidity Pressure Visibility Wind Dir Wind Speed Gust Speed Precip Events Conditions
12:00 AM 51.8 °F 48.2 °F 88% 30.06 in - SE 4.6 mph - N/A   Clear
1:00 AM 50.0 °F 48.2 °F 94% 30.06 in - SE 4.6 mph - N/A   Clear
2:00 AM 52 °F 49 °F 85% 30.06 in 6 mi SSE 8.1 mph - -  
2:00 AM 51.8 °F 48.2 °F 88% 30.06 in - SSE 8.1 mph - N/A   Clear
3:00 AM 51.8 °F 48.2 °F 88% 30.06 in - South 9.2 mph - N/A   Clear
4:00 AM 50.0 °F 48.2 °F 94% 30.04 in - South 5.8 mph - N/A   Clear
5:00 AM 50.0 °F 44.6 °F 82% 30.01 in - SSE 6.9 mph - N/A   Clear
6:00 AM 51.8 °F 50.0 °F 94% 30.04 in - SSE 6.9 mph - N/A   Clear
7:00 AM 55.4 °F 50.0 °F 82% 30.04 in - Calm Calm - N/A   Clear
8:00 AM 56 °F 50 °F 75% 30.04 in 6 mi SSE 5.8 mph - -  
8:00 AM 55.4 °F 50.0 °F 82% 30.04 in - SSE 5.8 mph - N/A   Clear
9:00 AM 57.2 °F 50.0 °F 77% 30.01 in - SE 9.2 mph - N/A   Clear
10:00 AM 60.8 °F 51.8 °F 72% 30.01 in - SSE 11.5 mph - N/A   Clear
11:00 AM 64.4 °F 50.0 °F 59% 30.01 in - SSE 16.1 mph - N/A   Clear
12:00 PM 66.2 °F 48.2 °F 52% 29.98 in - SSE 13.8 mph - N/A   Clear
1:00 PM 68.0 °F 46.4 °F 46% 29.95 in - SSE 11.5 mph - N/A   Clear
2:00 PM 69 °F 46 °F 32% 29.92 in 6 mi SE 11.5 mph - -   Clear
2:00 PM 68.0 °F 46.4 °F 46% 29.92 in - SE 11.5 mph - N/A   Clear
3:00 PM 68.0 °F 46.4 °F 46% 29.89 in - West 16.1 mph - N/A   Clear
4:00 PM 68.0 °F 48.2 °F 49% 29.89 in - West 13.8 mph - N/A   Clear
7:00 PM 60.8 °F 53.6 °F 77% 29.89 in - SE 9.2 mph - N/A   Clear
8:00 PM 57 °F 52 °F 76% 29.89 in 6 mi SE 9.2 mph - -  
8:00 PM 57.2 °F 51.8 °F 82% 29.89 in - SE 9.2 mph - N/A   Clear
9:00 PM 55.4 °F 50.0 °F 82% 29.89 in - SE 5.8 mph - N/A   Clear
10:00 PM 53.6 °F 48.2 °F 82% 29.89 in - Calm Calm - N/A   Clear
11:00 PM 57.2 °F 48.2 °F 72% 29.86 in - SW 8.1 mph - N/A   Clear